Location: PSU-Greenbush Astrophysical Observatory
(37.5140°N, 94.9880°W)
Time: 16:31:08
(UTC-06:00)

CUTE 1.7 + AOD 2 - Visible Passes

Search period start: 21 February 2020 00:00
Search period end: 02 March 2020 00:00
Orbit: 593 x 612 km, 97.6° (Epoch: 21 February)

Date Brightness Start Highest point End Pass type
(mag) Time Alt. Az. Time Alt. Az. Time Alt. Az.
21 Feb ? 04:49:20 10° NE 04:52:40 23° E 04:55:58 10° SSE visible
21 Feb ? 06:24:55 10° NNW 06:28:23 26° WNW 06:31:51 10° SW visible
22 Feb ? 05:00:57 10° NNE 05:04:42 31° E 05:08:24 10° SSE visible
23 Feb ? 05:12:42 10° NNE 05:16:43 43° E 05:20:41 10° S visible
24 Feb ? 05:24:32 10° NNE 05:28:42 61° E 05:32:50 10° S visible
25 Feb ? 05:36:28 10° NNE 05:40:41 87° ESE 05:44:51 10° SSW visible
26 Feb ? 05:48:27 10° N 05:52:37 67° WNW 05:56:46 10° SSW visible
27 Feb ? 04:26:49 10° ENE 04:28:31 12° E 04:30:12 10° ESE visible
27 Feb ? 06:00:31 10° N 06:04:33 47° WNW 06:08:34 10° SSW visible
28 Feb ? 04:37:50 10° NE 04:40:35 17° E 04:43:19 10° SE visible
28 Feb ? 06:12:40 10° N 06:16:28 34° WNW 06:20:14 10° SW visible
29 Feb ? 04:49:16 10° NE 04:52:38 23° E 04:55:59 10° SSE visible
29 Feb ? 06:24:55 10° NNW 06:28:21 25° WNW 06:31:46 10° SW visible
01 Mar ? 05:00:54 10° NNE 05:04:40 32° E 05:08:24 10° SSE visible
